FREGAT DEB, 47330

Orbit data source: Space-Track

FREGAT DEB, 47330 is space debris in LEO originally from a launch on Mon, 18 Jul 2011 UTC launched from the Tyuratam Missile And Space Complex (TTMTR). Debris objects in space refer to the collection of defunct objects orbiting the Earth. Examples of debris include non-operational satellites, rocket bodies, and fragments generated from explosions, collisions, or faulty payload assembly.

Loading next visibility...
Identifier
47330, 2011-037NM
Orbit
LEO
Country
Flag of CISCIS
Related business
Manufacturer
Lavochkin
Mission
Spacecraft
Bus & Motor
Unknown
Mass
Unknown
Launch date (UTC)
2011-07-18 (14 years ago)
Launch vehicle
Unknown
Launch site
Tyuratam Missile And Space Complex (TTMTR)
Object type
Payload
Rocket body
Debris
Shape & HBR
Unknown shape, 0.1 m
Radar Cross Section
Small (<0.1 m²)

Expand to show TLE details & history
Last TLE update: 11 hours ago

TLE from 11 hours ago
0 FREGAT DEB
1 47330U 11037NM  25342.60646897  .00066389  00000-0  95643-2 0  9992
2 47330  51.3922 196.8301 0969319 305.4461  45.9627 13.24619518213008
Epoch: 2025-12-08T14:33Z
TLE epoch observation values (Epoch: 2025-12-08T14:33:18.919Z)
Latitude
0.00003°
Longitude
-99.10179°
Altitude
699.974 km
Speed
7.736 km/s
True Right ascension
13h 07m 19s
True Declination
0° 00' 00"
Sunlit
Object was in daylight at epoch
Visualization orbit readout
Latitude
Unknown
Longitude
Unknown
Altitude
Unknown
Speed
Unknown
Apparent Right ascension
Unknown
Apparent Declination
Unknown
Sunlit
N/A
Visualization observer readout
Local Sidereal Time
00:04:05
Azimuth
Unknown
Elevation
Unknown
Doppler factor
Unknown
Orbital elements
Apogee altitude
1,899.054 km
Perigee altitude
436.203 km
Semi-major axis
7,545.766 km
Eccentricity
0.09693
Inclination
51.3922°
RAAN
196.8301°
Arg. of periapsis
305.4461°
True anomaly
54.64551°
Mean anomaly
45.9627°
Eccentric anomaly
50.23154°
Mean motion
3.31122 °/min
Orbital period
108.72 mins
BSTAR
0.0095643
Loading maneuver chart data...
Computing Atmospheric mass density...
Loading historical data...
Loading historical data...
Loading historical data...
Loading historical data...
Loading historical data...
Loading historical data...
Loading historical data...

Documentation

Showing up to 5 results
|